Find Kosmos-2146

NORAD ID: 21302 Int'l Des: 1991-033 Owner: UNKSR Country: SU operational
LEOCIRCULARPOLAR

Live-Position

3D-Globus wird geladen...

Über Kosmos-2146

Beschreibung wird geladen...

Nächste Überflüge

Passes for default location (London). Set your location on the main map for personalized predictions.

Höhenverlauf

Loading altitude history...

Zweizeiliger Elementsatz

1 21302U 91033D 26121.05273487 .00000036 00000-0 13498-3 0 9999
2 21302 82.5750 324.6016 0016667 134.1685 226.0780 12.64552564613367
Epoch: 1. Mai 2026 • Age: 13 hours

Aktueller Status

Höhe 1442.4 km
Geschwindigkeit 7.14 km/s
Subsatellitenpunkt -82.35°S, 178.58°E
Startdatum 16. Mai 1991
Alter 34.9 years
Typ other

Technische Details

Klassifizierung Payload
Masse 225.00 kg
Trockenmasse 225.00 kg
Gesamtmasse 225.00 kg
Länge 1.60 m
Durchmesser 0.80 m
Spannweite 7.00 m
Form Cyl + Ant
Hersteller NPOPM
Bus-Typ Strela-3
Phasenstatus In Orbit
Besitzer/Staat UNKSR/SU

Most Searched